Location: Wyoming Skies Observatory
(43.6910°N, 108.3105°W)
Time: 06:04:15
(UTC-06:00)

Daily predictions for brighter satellites

Satellite Brightness Start Highest point End
(mag) Time Altitude Azimuth Time Altitude Azimuth Time Altitude Azimuth
Cosmos 2227 4.4 20:27:20 10° NNW 20:32:59 77° WSW 20:38:38 10° SSE
NOSS 3-1 (A) 4.1 20:27:40 10° SW 20:33:25 62° NW 20:39:59 10° NNE
Resurs 1-3 3.7 20:30:05 10° SSE 20:34:25 61° ENE 20:38:46 10° N
Lacrosse 5 2.7 20:32:17 10° S 20:36:39 30° SE 20:41:02 10° ENE
NOSS 2-3 (E) 4.3 20:32:37 10° S 20:36:57 40° ESE 20:41:55 10° NE
Cosmos 1452 Rocket 3.6 20:33:12 10° SSW 20:38:29 90° ESE 20:43:49 10° NNE
Cosmos 1850 Rocket 4.3 20:33:48 10° NNW 20:39:02 54° ENE 20:44:13 10° SE
Cosmos 1420 Rocket 4.0 20:34:36 10° S 20:39:41 65° ESE 20:44:51 10° NNE
Cosmos 921 Rocket 4.1 20:37:02 10° SW 20:41:04 48° WNW 20:45:09 10° N
SL-8 R/B 4.4 20:38:09 10° WNW 20:42:50 51° N 20:47:30 10° E
Atlas Centaur 2 4.1 20:37:48 10° WSW 20:44:49 30° S 20:51:08 10° SE
Cosmos 1602 3.6 20:43:08 10° S 20:46:58 77° E 20:50:48 10° N
SeaSat 1 2.9 20:43:15 10° NE 20:47:49 37° ESE 20:52:22 10° S
Cosmos 1633 3.5 20:45:25 10° SSW 20:48:57 54° W 20:52:33 10° N
Cosmos 839 Rocket 4.1 20:45:17 10° SW 20:51:32 83° NW 20:57:53 10° NNE
Okean 1 Rocket 3.8 20:51:18 10° SSE 20:55:06 31° E 20:58:58 10° NNE
Tiangong 1 1.3 20:52:59 10° W 20:55:41 46° SSW 20:57:45 15° ESE
Cosmos 1300 Rocket 3.8 20:51:43 10° SSE 20:55:50 46° E 20:59:59 10° NNE
Cosmos 1607 4.2 20:49:54 10° NNW 20:56:19 64° NE 21:02:28 11° SE
Cosmos 1025 Rocket 4.2 20:53:39 10° NNE 20:57:12 25° ENE 21:00:08 13° SE
YAOGAN 6 3.3 20:56:40 11° SE 20:59:45 35° ENE 21:02:59 10° N
Cosmos 2263 Rocket 2.3 20:54:14 10° NNW 20:59:56 69° ENE 21:05:35 10° SSE
Cosmos 1140 Rocket 4.3 20:59:22 10° NNW 21:04:28 52° WSW 21:09:32 10° S
Cosmos 2322 Rocket 2.2 20:59:21 10° SSW 21:05:04 84° ESE 21:10:48 10° NNE
SJ-11-01 4.3 21:00:29 10° SSE 21:05:04 61° ENE 21:09:41 10° N
Cosmos 1844 Rocket 4.2 21:02:10 10° N 21:06:26 21° NE 21:10:10 12° E
Abrixas rocket 3.6 21:03:41 10° WNW 21:06:44 34° N 21:09:47 10° ENE
Okean 1-7 Rocket 4.5 21:03:23 10° N 21:07:25 31° ENE 21:10:26 16° SE
Meteor 1-11 Rocket 3.8 21:01:38 10° S 21:07:28 82° E 21:13:12 10° NNE
S3M 4.2 21:03:53 10° N 21:10:10 78° W 21:16:30 10° S
CZ-4B DEB 4.5 21:06:43 10° SSE 21:10:12 68° ENE 21:13:43 10° N
NOSS 2-3 (C) 3.8 21:05:50 10° SSW 21:10:31 75° ESE 21:16:01 10° NE
Resurs 01 Rocket 2.5 21:06:16 10° S 21:10:36 51° W 21:14:58 10° NNW
Cosmos 1553 Rocket 4.3 21:05:10 10° NNW 21:11:18 70° W 21:17:19 10° S
Spot 2 Rocket 4.0 21:06:50 10° S 21:11:53 62° WSW 21:16:57 10° NNW
Cosmos 2266 Rocket 3.9 21:10:35 10° S 21:16:32 67° E 21:22:32 10° NNE
SL-16 R/B 2.4 21:11:39 10° SSW 21:17:19 80° WNW 21:23:01 10° NNE
Cosmos 2151 Rocket 4.3 21:13:20 10° SSW 21:17:39 56° W 21:22:00 10° N
Helios 1A 3.1 21:18:03 15° SSE 21:21:31 62° ENE 21:25:44 10° N
USA 238 DEB 4.2 21:15:22 10° NNW 21:22:17 52° NE 21:27:24 19° ESE
USA 238 4.2 21:15:28 10° NNW 21:22:23 52° NE 21:27:30 19° ESE
Cosmos 2315 Rocket 4.2 21:16:56 10° N 21:23:04 54° ENE 21:28:16 15° SSE
Cosmos 2219 Rocket 4.1 21:24:26 12° E 21:24:26 12° E 21:25:26 10° ENE
Meteor 1-23 Rocket 4.1 21:18:19 10° N 21:23:54 76° E 21:29:21 11° SSE
Meteor 1-29 3.6 21:23:35 10° NNE 21:26:43 33° E 21:27:46 27° SE
Cosmos 1500 4.3 21:27:02 24° ESE 21:27:44 25° E 21:30:58 10° NNE
Cosmos 2322 4.0 21:23:29 10° S 21:28:47 43° ESE 21:34:08 10° NE
ERS-1 Rocket 3.4 21:26:41 20° SE 21:29:49 46° ENE 21:34:37 10° N
Cosmos 1939 Rocket 3.4 21:30:07 10° S 21:34:02 58° W 21:37:55 10° NNW
Cosmos 1536 3.3 21:31:04 10° SSW 21:35:06 63° W 21:39:09 10° N
ATLAS 3B R/B 2.7 21:30:17 10° NNW 21:37:04 67° NE 21:41:11 24° SE
Cosmos 2360 Rocket 2.1 21:32:07 10° S 21:37:40 63° ESE 21:43:14 10° NNE
COSMOS 2428 3.5 21:37:39 23° SE 21:39:53 30° ESE 21:44:46 10° NE
Envisat 4.1 21:36:27 10° S 21:41:15 42° W 21:46:06 10° NNW
Cosmos 1892 Rocket 4.2 21:42:25 10° N 21:46:33 37° ENE 21:47:37 32° ESE
SAR-Lupe-4 3.5 21:46:54 40° SE 21:48:00 65° ENE 21:51:35 10° N
CZ-4B DEB 2.3 21:47:35 55° S 21:48:07 89° WSW 21:51:00 10° NNW
H-2A R/B 2.8 21:49:01 28° ESE 21:50:37 34° ENE 21:55:06 10° N
Meteor 1-5 Rocket 4.3 21:46:07 10° SSW 21:51:25 71° WNW 21:56:43 10° N
Cosmos 1238 Rocket 4.2 21:44:58 10° N 21:51:35 54° ENE 21:54:49 28° SE
Cosmos 2333 Rocket 3.9 21:55:01 16° ENE 21:55:01 16° ENE 21:57:02 10° ENE
EXPRESS MD2 4.3 21:52:52 10° W 21:55:48 45° N 22:01:11 10° ENE
NOAA 11 4.2 21:53:53 23° SSE 21:57:27 90° NW 22:02:59 10° NNW
Cosmos 1544 Rocket 4.0 22:01:28 40° ESE 22:01:45 40° E 22:05:56 10° NNE
Cosmos 405 3.3 22:02:28 49° ENE 22:02:28 49° ENE 22:05:38 10° NNE
Cosmos 1302 Rocket 4.1 21:59:40 26° S 22:02:25 53° ESE 22:07:33 10° NNE
Cosmos 1486 Rocket 4.1 21:59:37 10° NNW 22:04:50 62° ENE 22:06:31 40° SE
SAR-Lupe-1 3.9 22:04:15 60° SSE 22:04:51 88° ENE 22:08:27 10° NNW
Helios 1B rocket 2.9 22:01:57 10° N 22:06:00 60° WNW 22:10:02 10° SSW
MetOp-A 4.1 22:06:05 31° SSE 22:08:47 89° WSW 22:14:10 10° NNW
Cosmos 2237 Rocket 4.2 22:12:25 12° ENE 22:12:25 12° ENE 22:13:14 10° ENE
Cosmos 1110 Rocket 4.3 22:06:04 10° SSW 22:11:12 67° WNW 22:16:23 10° NNE
Aureole 3 Rocket 4.3 22:05:19 10° N 22:13:53 76° E 22:16:58 34° SSE
SPOT 5 2.8 22:12:52 48° SE 22:14:02 66° ENE 22:18:39 10° N
Cosmos 1455 Rocket 3.3 22:14:10 48° E 22:14:10 48° E 22:18:25 10° NNE
ATLAS 2AS CENTAUR R/B 3.4 22:09:21 10° SW 22:17:04 66° NW 22:25:12 10° NNE
Lacrosse 5 2.6 22:14:25 10° WSW 22:19:24 55° NW 22:24:24 10° NE
Cosmos 1241 Rocket 4.5 22:13:23 10° SSW 22:19:50 63° ESE 22:26:15 10° NE
Cosmos 1066 Rocket 4.0 22:16:01 10° N 22:21:28 80° E 22:23:11 46° SSE
SeaSat 1 4.2 22:20:52 10° N 22:25:16 33° NW 22:29:39 10° WSW
SL-8 R/B 3.6 22:20:48 10° WNW 22:25:36 76° SSW 22:26:12 65° SSE
CENTAUR R/B 4.2 22:19:03 10° NNW 22:25:47 32° NE 22:30:30 19° E
NOSS 3-4 (A) 4.1 22:28:46 37° E 22:28:46 37° E 22:33:39 10° NE
NOSS 3-4 (C) 4.1 22:28:58 36° E 22:28:58 36° E 22:33:45 10° NE
SL-08 RB Rocket 3.6 22:27:46 62° S 22:28:32 87° WSW 22:33:06 10° NNW
Cosmos 1743 3.9 22:31:23 33° NE 22:31:23 33° NE 22:33:44 10° NNE
BREEZE-M DEB (TANK) 4.2 22:30:55 10° WNW 22:31:42 16° WNW 22:31:42 16° WNW
Atlas Centaur 2 4.3 22:28:17 10° WSW 22:33:13 18° SSW 22:34:08 18° SSW
ARGOS 3.3 22:31:25 39° S 22:33:22 67° WSW 22:38:44 10° NNW
Nadezhda 1 Rocket 4.0 22:29:58 10° N 22:36:17 66° E 22:37:46 51° SE
Landsat 7 3.8 22:39:59 62° ENE 22:40:01 63° ENE 22:44:44 10° N
Cosmos 1354 Rocket 3.9 22:37:18 10° NNW 22:42:39 69° ENE 22:43:07 65° ESE
Meteor 1-21 4.3 22:37:30 10° N 22:43:04 59° ENE 22:43:32 57° E
Cosmos 2263 Rocket 4.4 22:39:31 10° WNW 22:43:14 18° W 22:46:55 10° SW
Abrixas rocket 3.9 22:40:28 10° WNW 22:42:28 33° NW 22:42:28 33° NW
DMSP B5D2-2 4.1 22:38:41 10° NNE 22:43:42 59° E 22:43:42 59° E
CARTOSAT-1 4.3 22:47:41 44° NE 22:47:41 44° NE 22:51:08 10° N
Cosmos 2278 Rocket 2.6 22:42:30 10° NNW 22:47:58 46° ENE 22:48:29 44° ENE
Cosmos 1844 Rocket 2.7 22:45:15 10° NNW 22:50:55 71° WSW 22:51:49 60° SSW
SPOT 1/Viking Rocket 3.6 22:51:20 62° SSW 22:52:05 73° WSW 22:57:21 10° NNW
Cosmos 1975 3.8 22:52:10 41° W 22:52:33 42° WNW 22:56:23 10° N
Cosmos 1818 3.5 22:50:29 33° SW 22:53:00 85° NW 22:58:29 10° NNE
Cosmos 1709 Rocket 4.3 22:55:20 46° E 22:55:20 46° E 23:01:00 10° NNE
Terra 2.1 22:55:49 59° NE 22:55:49 59° NE 23:00:04 10° N
Cosmos 1602 Rocket 4.1 22:53:37 10° N 22:56:59 51° NNE 22:56:59 51° NNE
H-2A R/B 3.4 23:00:58 31° NE 23:00:58 31° NE 23:03:53 10° N
Nimbus 7 Rocket 4.3 22:56:30 10° NNE 23:02:24 85° WNW 23:03:42 57° SSW
Cosmos 1503 Rocket 4.0 22:58:22 10° NNW 23:03:46 79° WSW 23:03:53 78° SW
Cosmos 2219 Rocket 2.0 23:06:04 83° S 23:06:18 88° ESE 23:11:59 10° NNE
Meteor 2-9 Rocket 4.4 23:09:28 61° ENE 23:09:28 61° ENE 23:14:30 10° NNE
BREEZE M DEB (TANK) 4.2 23:04:56 10° WNW 23:08:43 36° NNW 23:08:43 36° NNW
Cosmos 724 4.2 23:03:41 10° NW 23:09:34 74° WSW 23:09:48 73° SW
NOSS 3-2 (A) 4.0 23:03:41 10° NW 23:11:12 73° WSW 23:13:01 55° S
SL-16 R/B 4.2 23:21:36 16° ENE 23:21:36 16° ENE 23:23:01 10° NE
Cosmos 2360 Rocket 4.4 23:17:44 10° WSW 23:22:08 23° NW 23:26:33 10° N
COSMOS 2428 3.7 23:19:31 15° SW 23:23:56 44° WNW 23:29:25 10° NNE
ATLAS 3B R/B 4.0 23:21:55 10° WNW 23:27:07 25° WSW 23:28:26 23° SW
Cosmos 1844 4.4 23:24:15 10° NW 23:29:39 45° WSW 23:29:39 45° WSW
H-2A R/B 3.4 23:29:40 29° WSW 23:30:03 29° W 23:34:24 10° NW
ATLAS CENTAUR R/B 3.7 23:28:13 10° N 23:29:33 16° NNE 23:29:33 16° NNE
NOSS 0 Rocket 3.9 23:35:52 84° NW 23:35:52 84° NW 23:42:04 10° NNE
Cosmos 2333 Rocket 2.4 23:36:59 67° WNW 23:36:59 67° WNW 23:42:35 10° NNE
NOSS 3-2 (C) 4.2 23:42:56 10° NW 23:50:19 56° WSW 23:50:54 55° SW
Cosmos 2237 Rocket 2.6 23:54:11 58° N 23:54:11 58° N 23:58:50 10° NNE
COSMOS 2455 3.3 23:47:46 10° NNW 23:53:12 52° NE 23:53:12 52° NE
Cosmos 968 Rocket 4.3 23:48:53 10° NNW 23:52:34 47° NNW 23:52:34 47° NNW
Cosmos 2369 Rocket 4.3 23:50:37 10° N 23:54:02 16° NE 23:55:12 15° ENE
